TimeEST,TemperatureF,Dew PointF,Humidity,Sea Level PressureIn,VisibilityMPH,Wind Direction,Wind SpeedMPH,Gust SpeedMPH,PrecipitationIn,Events,Conditions,WindDirDegrees,DateUTC
12:53 AM,42.1,25.0,51,29.88,10.0,SW,9.2,-,N/A,,Clear,220,2013-01-20 05:53:00
1:53 AM,41.0,25.0,53,29.88,10.0,SW,5.8,-,N/A,,Clear,220,2013-01-20 06:53:00
2:53 AM,41.0,24.1,51,29.86,10.0,SSW,9.2,-,N/A,,Clear,200,2013-01-20 07:53:00
3:53 AM,43.0,21.9,43,29.83,10.0,SSW,10.4,19.6,N/A,,Clear,200,2013-01-20 08:53:00
4:53 AM,43.0,21.0,42,29.81,10.0,SSW,10.4,-,N/A,,Clear,200,2013-01-20 09:53:00
5:53 AM,43.0,21.9,43,29.79,10.0,SSW,13.8,21.9,N/A,,Clear,200,2013-01-20 10:53:00
6:53 AM,43.0,21.9,43,29.79,10.0,SSW,12.7,20.7,N/A,,Clear,200,2013-01-20 11:53:00
7:53 AM,42.1,24.1,49,29.80,10.0,SSW,11.5,-,N/A,,Clear,210,2013-01-20 12:53:00
8:53 AM,46.9,25.0,42,29.82,10.0,SW,12.7,19.6,N/A,,Clear,230,2013-01-20 13:53:00
9:53 AM,48.9,27.0,43,29.82,10.0,SW,11.5,18.4,N/A,,Clear,230,2013-01-20 14:53:00
10:53 AM,51.1,28.0,41,29.82,10.0,West,13.8,21.9,N/A,,Clear,260,2013-01-20 15:53:00
11:53 AM,52.0,24.1,34,29.81,10.0,West,18.4,29.9,N/A,,Clear,270,2013-01-20 16:53:00
12:53 PM,51.1,23.0,33,29.82,10.0,WNW,21.9,32.2,N/A,,Partly Cloudy,290,2013-01-20 17:53:00
1:53 PM,51.1,18.0,27,29.84,10.0,WNW,24.2,31.1,N/A,,Clear,290,2013-01-20 18:53:00
2:53 PM,48.9,17.1,28,29.88,10.0,WNW,16.1,27.6,N/A,,Clear,300,2013-01-20 19:53:00
3:53 PM,46.0,10.9,24,29.93,10.0,WNW,18.4,31.1,N/A,,Clear,290,2013-01-20 20:53:00
4:53 PM,41.0,12.9,32,29.97,10.0,NW,11.5,19.6,N/A,,Clear,310,2013-01-20 21:53:00
5:53 PM,37.0,12.9,37,30.00,10.0,NW,9.2,-,N/A,,Clear,310,2013-01-20 22:53:00
6:53 PM,33.1,16.0,50,30.04,10.0,NW,5.8,-,N/A,,Clear,310,2013-01-20 23:53:00
7:53 PM,32.0,15.1,50,30.07,10.0,NW,5.8,-,N/A,,Clear,320,2013-01-21 00:53:00
8:53 PM,30.9,14.0,50,30.07,10.0,NNW,5.8,-,N/A,,Clear,330,2013-01-21 01:53:00
9:53 PM,30.0,12.9,49,30.08,10.0,NNW,8.1,-,N/A,,Clear,330,2013-01-21 02:53:00
10:53 PM,28.0,12.9,53,30.10,10.0,NNW,4.6,-,N/A,,Clear,340,2013-01-21 03:53:00
11:53 PM,27.0,12.9,56,30.09,10.0,NNW,9.2,-,N/A,,Clear,330,2013-01-21 04:53:00